This is the latest recevied weather packets stored in our database for station/object WA1TYB-13. If no packets are shown the sender has not sent any weather packets the latest 10 day(s).
| Time | Temp. | Humidity | Pressure | Rain* | Wind** | Luminosity | Snow |
|---|---|---|---|---|---|---|---|
| 1777989003 | 2.78° C | 63% | 1019.7 hPa | 0 mm | - | 92 W/m² | - |
| 1777988699 | 2.78° C | 63% | 1020 hPa | 0 mm | - | 88 W/m² | - |
| 1777988396 | 2.78° C | 67% | 1020 hPa | 0 mm | - | 78 W/m² | - |
| 1777988093 | 2.78° C | 67% | 1019.7 hPa | 0 mm | - | 73 W/m² | - |
| 1777987788 | 2.22° C | 67% | 1019.8 hPa | 0 mm | - | 73 W/m² | - |
| 1777987485 | 2.22° C | 67% | 1019.8 hPa | 0 mm | - | 64 W/m² | - |
| 1777987184 | 2.22° C | 67% | 1019.6 hPa | 0 mm | - | 55 W/m² | - |
| 1777986880 | 1.67° C | 66% | 1019.6 hPa | 0 mm | - | 48 W/m² | - |
| 1777986578 | 1.67° C | 66% | 1019.6 hPa | 0 mm | - | 46 W/m² | - |
| 1777986276 | 1.67° C | 66% | 1019.5 hPa | 0 mm | - | 39 W/m² | - |
| 1777985973 | 1.67° C | 66% | 1019.4 hPa | 0 mm | - | 33 W/m² | - |
| 1777985670 | 1.67° C | 66% | 1019.4 hPa | 0 mm | - | 26 W/m² | - |
| 1777985366 | 1.67° C | 66% | 1019.4 hPa | 0 mm | - | 22 W/m² | - |
| 1777985064 | 1.11° C | 67% | 1019.3 hPa | 0 mm | - | 19 W/m² | - |
| 1777984760 | 0.56° C | 69% | 1019.1 hPa | 0 mm | - | 16 W/m² | - |
| 1777984456 | 0.56° C | 70% | 1019.3 hPa | 0 mm | - | 13 W/m² | - |
| 1777984152 | 0.56° C | 68% | 1019.1 hPa | 0 mm | - | 10 W/m² | - |
| 1777983850 | 0.56° C | 67% | 1019.4 hPa | 0 mm | - | 6 W/m² | - |
| 1777983546 | 0.56° C | 67% | 1019 hPa | 0 mm | - | 4 W/m² | - |
| 1777983243 | 0.56° C | 68% | 1018.6 hPa | 0 mm | - | 2 W/m² | - |
| 1777982939 | 0.56° C | 68% | 1018.8 hPa | 0 mm | - | 2 W/m² | - |
| 1777982636 | 0° C | 70% | 1018.8 hPa | 0 mm | - | 0 W/m² | - |
| 1777982334 | 0° C | 70% | 1019 hPa | 0 mm | - | 0 W/m² | - |
| 1777982032 | 0° C | 70% | 1018.8 hPa | 0 mm | - | 0 W/m² | - |
| 1777981730 | 0° C | 69% | 1018.7 hPa | 0 mm | - | 0 W/m² | - |
* Rain latest hour (hover to see other rain measurements)
** Current wind speed in m/s (hover to see current wind gust speed)